Change the Weather History Date:

Thursday, October 3, 2013

  Actual Average Record
Temperature  
Mean Temperature 40 °F -  
Max Temperature 51 °F 56 °F - ()
Min Temperature 30 °F 40 °F - ()
Degree Days  
Heating Degree Days 24    
Moisture  
Dew Point 29 °F    
Average Humidity 64    
Maximum Humidity 87    
Minimum Humidity 27    
Precipitation  
Precipitation 0.00 in 0.04 in - ()
Sea Level Pressure  
Sea Level Pressure 30.41 in    
Wind  
Wind Speed 7 mph ()    
Max Wind Speed 14 mph    
Max Gust Speed -    
Visibility 7.2 miles    
Events      
T = Trace of Precipitation, MM = Missing Value Source: Averaged Metar Reports

Daily Weather History Graph

Daily Weather History Graph

Search for Another Location

Airport or City:

Trip Planner

Search our weather history database for the weather conditions in past years. The results will help you decide how hot, cold, wet, or windy it might be!

Date:

Astronomy

Oct. 03, 2013 Rise Set
Actual Time 6:55 AM CEST 6:27 PM CEST
Civil Twilight 6:24 AM CEST 6:59 PM CEST
Nautical Twilight 5:47 AM CEST 7:36 PM CEST
Astronomical Twilight 5:09 AM CEST 8:13 PM CEST
Moon 5:05 AM CEST (10/3) 5:30 PM CEST (10/3)
Length of Visible Light 12h 35m
Length of Day
11h 31m
Waning Crescent, 3% of the Moon is Illuminated
Oct 3
Waning Crescent
Oct 5
New
Oct 12
First Quarter
Oct 19
Full
Oct 27
Last Quarter

Hourly Weather History & Observations

Time (CEST) Temp. Windchill Dew Point Humidity Pressure Visibility Wind Dir Wind Speed Gust Speed Precip Events Conditions
12:00 AM 39.2 °F 35.9 °F 33.8 °F 81% 30.36 in - NNE 4.6 mph - N/A   Clear
12:30 AM 39.2 °F 35.9 °F 32.0 °F 75% 30.36 in - NE 4.6 mph - N/A   Clear
1:00 AM 39.2 °F 35.0 °F 32.0 °F 75% 30.36 in - NNE 5.8 mph - N/A   Clear
1:30 AM 37.4 °F 33.8 °F 32.0 °F 81% 30.36 in - ENE 4.6 mph - N/A   Clear
2:00 AM 37 °F - 32 °F 74% 30.43 in 16 mi ENE 4.5 mph - -  
2:00 AM 37.4 °F 33.8 °F 32.0 °F 81% 30.39 in - ENE 4.6 mph - N/A   Clear
2:30 AM 37.4 °F 32.8 °F 32.0 °F 81% 30.39 in - NE 5.8 mph - N/A   Clear
3:00 AM 37.4 °F 31.4 °F 32.0 °F 81% 30.36 in - NE 8.1 mph - N/A   Clear
3:30 AM 37.4 °F 32.8 °F 30.2 °F 75% 30.36 in - NE 5.8 mph - N/A   Clear
4:00 AM 33.8 °F 28.6 °F 30.2 °F 87% 30.39 in - ENE 5.8 mph - N/A   Clear
4:30 AM 35.6 °F 30.7 °F 30.2 °F 81% 30.39 in - NE 5.8 mph - N/A   Clear
5:00 AM 33.8 °F 28.6 °F 28.4 °F 81% 30.39 in - ENE 5.8 mph - N/A   Clear
5:30 AM 35.6 °F 28.6 °F 30.2 °F 81% 30.39 in - NE 9.2 mph - N/A   Clear
6:00 AM 32.0 °F 25.6 °F 28.4 °F 87% 30.39 in - ENE 6.9 mph - N/A   Clear
6:30 AM 32.0 °F 25.6 °F 28.4 °F 87% 30.39 in 5.0 mi ENE 6.9 mph - N/A   Unknown
7:00 AM 32.0 °F 26.4 °F 28.4 °F 87% 30.39 in 5.0 mi ENE 5.8 mph - N/A   Unknown
7:30 AM 35.6 °F 29.2 °F 30.2 °F 81% 30.42 in 5.0 mi ENE 8.1 mph - N/A   Unknown
8:00 AM 36 °F - 31 °F 76% 30.47 in 5 mi ENE 8.9 mph - -   Mist
8:00 AM 35.6 °F 29.9 °F 30.2 °F 81% 30.42 in 5.0 mi ENE 6.9 mph - N/A   Unknown
8:30 AM 39.2 °F 32.0 °F 32.0 °F 75% 30.42 in 5.0 mi ENE 11.5 mph - N/A   Unknown
9:00 AM 39.2 °F 31.6 °F 32.0 °F 75% 30.42 in 5.0 mi ENE 12.7 mph - N/A   Unknown
9:30 AM 41.0 °F 33.5 °F 32.0 °F 70% 30.42 in - ENE 13.8 mph - N/A   Clear
10:00 AM 41.0 °F 33.5 °F 30.2 °F 65% 30.45 in - ENE 13.8 mph - N/A   Clear
10:30 AM 42.8 °F 35.8 °F 30.2 °F 61% 30.45 in - ENE 13.8 mph - N/A   Clear
11:00 AM 44.6 °F 38.8 °F 30.2 °F 57% 30.45 in 6.2 mi ENE 11.5 mph - N/A   Partly Cloudy
11:30 AM 46.4 °F 41.5 °F 30.2 °F 53% 30.45 in 6.2 mi East 10.4 mph - N/A   Partly Cloudy
12:00 PM 46.4 °F 42.4 °F 28.4 °F 50% 30.45 in 6.2 mi East 8.1 mph - N/A   Scattered Clouds
12:30 PM 48.2 °F - 28.4 °F 46% 30.45 in 6.2 mi SE 6.9 mph - N/A   Scattered Clouds
1:00 PM 48.2 °F - 26.6 °F 43% 30.42 in 6.2 mi SE 8.1 mph - N/A   Partly Cloudy
1:30 PM 48.2 °F - 26.6 °F 43% 30.42 in - East 8.1 mph - N/A   Clear
2:00 PM 50 °F - 26 °F 27% 30.45 in 25 mi ESE 8.9 mph - -   Scattered Clouds
2:00 PM 50.0 °F - 26.6 °F 40% 30.42 in - ESE 9.2 mph - N/A   Clear
2:30 PM 50.0 °F - 28.4 °F 43% 30.42 in - SE 8.1 mph - N/A   Clear
3:00 PM 50.0 °F - 28.4 °F 43% 30.42 in - East 9.2 mph - N/A   Clear
3:30 PM 50.0 °F - 28.4 °F 43% 30.39 in - ESE 9.2 mph - N/A   Clear
4:00 PM 50.0 °F - 26.6 °F 40% 30.39 in - SE 9.2 mph - N/A   Clear
4:30 PM 50.0 °F - 26.6 °F 40% 30.39 in - SE 8.1 mph - N/A   Clear
5:00 PM 50.0 °F - 26.6 °F 40% 30.39 in - SE 8.1 mph - N/A   Clear
5:30 PM 48.2 °F - 26.6 °F 43% 30.39 in - ESE 8.1 mph - N/A   Clear
6:00 PM 46.4 °F 42.4 °F 28.4 °F 50% 30.39 in - SE 8.1 mph - N/A   Clear
6:30 PM 44.6 °F 40.7 °F 28.4 °F 53% 30.39 in - SE 6.9 mph - N/A   Clear
7:00 PM 42.8 °F 38.6 °F 28.4 °F 57% 30.42 in - ESE 6.9 mph - N/A   Clear
7:30 PM 41.0 °F 37.1 °F 28.4 °F 61% 30.42 in - ESE 5.8 mph - N/A   Clear
8:00 PM 42 °F - 27 °F 43% 30.46 in 19 mi East 4.5 mph - -  
8:00 PM 41.0 °F 37.1 °F 26.6 °F 57% 30.42 in - ESE 5.8 mph - N/A   Clear
8:30 PM 41.0 °F 36.4 °F 28.4 °F 61% 30.42 in - ENE 6.9 mph - N/A   Clear
9:00 PM 41.0 °F 37.1 °F 28.4 °F 61% 30.42 in - ENE 5.8 mph - N/A   Clear
9:30 PM 41.0 °F 36.4 °F 28.4 °F 61% 30.42 in - ENE 6.9 mph - N/A   Clear
10:00 PM 39.2 °F 33.6 °F 28.4 °F 65% 30.42 in - ENE 8.1 mph - N/A   Clear
10:30 PM 35.6 °F 28.6 °F 26.6 °F 70% 30.45 in - ENE 9.2 mph - N/A   Clear
11:00 PM 33.8 °F 27.0 °F 26.6 °F 75% 30.45 in - East 8.1 mph - N/A   Clear
11:30 PM 35.6 °F 29.2 °F 28.4 °F 75% 30.45 in - ENE 8.1 mph - N/A   Clear